Miscellaneous Local Product
Issued by NWS Hastings, NE

Home | Current Version | Previous Version | Graphics & Text | Print | Product List | Glossary On
Versions: 1 2 3 4 5 6 7 8 9 10 11 12 13 14 15 16 17 18 19 20 21 22 23 24 25 26 27 28 29 30 31 32 33 34 35 36 37 38 39 40 41 42 43 44 45 46 47 48 49 50
000
AXUS43 KGID 060502
MISGRI

GID CWA HOURLY WEATHER ROUNDUP
NATIONAL WEATHER SERVICE HASTINGS NE
1100 PM CST MON DEC 05 2016

NOTE: "FAIR" INDICATES FEW OR NO CLOUDS BELOW 12,000 FEET WITH NO
SIGNIFICANT WEATHER AND/OR OBSTRUCTIONS TO VISIBILITY.

...SOUTH CENTRAL NEBRASKA...

CITY           SKY/WX    TMP DP  RH WIND       PRES   REMARKS
GRAND ISLAND   CLOUDY    30  17  58 N21G28    29.91R WCI  17
HASTINGS       CLOUDY    31  20  63 N23       29.89R WCI  18
KEARNEY        CLOUDY    28  14  54 N18G26    29.91R WCI  16
ORD            CLOUDY    27  14  58 NW17G25   29.90R WCI  14
YORK           CLOUDY    32  21  64 NW24G31   29.87R WCI  19
AURORA         CLOUDY    30  19  61 NW24G35   29.89R WCI  16
LEXINGTON      CLOUDY    28  15  59 N16       29.92S WCI  16
HOLDREGE       CLOUDY    29  16  58 N13G21    29.90S WCI  18
HEBRON         CLOUDY    34  26  72 N24G31    29.87R WCI  21

...NEBRASKA PANHANDLE...

CITY           SKY/WX    TMP DP  RH WIND       PRES   REMARKS
CHADRON        CLEAR     16   7  67 SW6       29.96R WCI   7
ALLIANCE       CLEAR     13   7  77 W16       29.90R WCI  -3
SCOTTSBLUFF    CLEAR     17   6  62 W16       29.95R WCI   2
SIDNEY         CLOUDY    18   8  65 NW14      29.92R WCI   4

...WESTERN AND NORTH CENTRAL NEBRASKA...

CITY           SKY/WX    TMP DP  RH WIND       PRES   REMARKS
VALENTINE      CLEAR     18   9  68 W10       29.92R WCI   6
AINSWORTH      CLEAR     20  12  71 NW16      29.91R WCI   6
ONEILL         MOCLDY    26  17  71 W20       29.89S WCI  12
BROKEN BOW     MOCLDY    26  15  63 N18       29.89S WCI  13
IMPERIAL       PTCLDY    25  12  58 NW17      29.95R WCI  12
NORTH PLATTE   MOCLDY    24  15  68 NW8       29.94S WCI  15
MCCOOK         CLOUDY    29  16  58 N16       29.94R WCI  17

...EASTERN NEBRASKA...

CITY           SKY/WX    TMP DP  RH WIND       PRES   REMARKS
NORFOLK        CLOUDY    28  16  60 NW20G31   29.87R WCI  15
SO SIOUX CITY  CLOUDY    32  22  66 NW20G31   29.83R WCI  20
TEKAMAH        CLOUDY    33  24  69 NW25G32   29.85R WCI  20
COLUMBUS       CLOUDY    30  19  64 NW20G37   29.88R WCI  18
ALBION         CLOUDY    28  17  61 NW18G24   29.90R WCI  16
OMAHA EPPLEY   FLURRIES  35  29  78 N15       29.83R WCI  25
OFFUTT AFB     FLURRIES  36  36  99 NW16G25   29.82R WCI  26
MILLARD        LGT SNOW  35  31  85 NW13      29.83S WCI  26
LINCOLN        CLOUDY    35  26  69 N20G31    29.87R WCI  24
NEBRASKA CITY  CLOUDY    38  32  80 N18G28    29.80R WCI  28
BEATRICE       CLOUDY    36  29  76 N18G29    29.84R WCI  25
FALLS CITY     CLOUDY    38  35  89 CALM      29.77R

...NORTHERN KANSAS...

CITY           SKY/WX    TMP DP  RH WIND       PRES   REMARKS
GOODLAND       CLEAR     23  12  62 N12       29.93R WCI  12
HILL CITY      CLOUDY    33  18  53 N23G32    29.92R WCI  21
NORTON         CLOUDY    30  12  47 NW20      29.91R WCI  18
PHILLIPSBURG   CLOUDY    34  19  55 NW16G23   29.91R WCI  23
SMITH CENTER   CLOUDY    30  19  64 N24G36    29.89R WCI  16
BELOIT         CLOUDY    36  25  64 N23G35    29.85R WCI  24
HAYS           CLOUDY    36  26  67 N21G31    29.87R WCI  25
RUSSELL        CLOUDY    36  27  69 N18G37    29.85R WCI  26
CONCORDIA      CLOUDY    36  28  73 N18G25    29.85R WCI  26
SALINA         PTCLDY    41  35  79 N23G30    29.81R
TOPEKA         CLEAR     34  30  85 CALM      29.78R



USA.gov is the U.S. government's official web portal to all federal, state and local government web resources and services.